Time,TemperatureF,DewpointF,PressureIn,WindDirection,WindDirectionDegrees,WindSpeedMPH,WindSpeedGustMPH,Humidity,HourlyPrecipIn,Conditions,Clouds,dailyrainin,SolarRadiationWatts/m^2,SoftwareType,DateUTC
2013-12-05 00:43:00,57.0,56.0,30.07,ESE,112,0.0,1.0,97,0.00,,,-99.99,0.000000,,2013-12-05 05:43:00,
2013-12-05 01:43:00,57.0,57.0,30.09,NW,319,1.0,3.0,98,0.00,,,-99.99,0.000000,,2013-12-05 06:43:00,
2013-12-05 02:42:00,58.0,57.0,30.08,SE,143,0.0,1.0,98,0.00,,,-99.99,0.000000,,2013-12-05 07:42:00,
2013-12-05 03:42:00,59.0,59.0,30.09,NNE,25,0.0,1.0,99,0.00,,,-99.99,0.000000,,2013-12-05 08:42:00,
2013-12-05 04:43:00,59.0,59.0,30.09,SE,139,2.0,5.0,99,0.00,,,-99.99,0.000000,,2013-12-05 09:43:00,
2013-12-05 05:43:00,58.0,58.0,30.09,WNW,302,2.0,6.0,99,0.00,,,-99.99,0.000000,,2013-12-05 10:43:00,
2013-12-05 06:22:00,58.0,58.0,-100.00,ESE,118,3.0,-999.0,100,0.00,,,-99.99,,,2013-12-05 11:22:00,
2013-12-05 06:33:00,58.0,58.0,-100.00,ESE,118,3.0,-999.0,100,0.00,,,-99.99,,,2013-12-05 11:33:00,
2013-12-05 06:42:00,58.0,58.0,-100.00,ESE,118,3.0,-999.0,100,0.00,,,-99.99,,,2013-12-05 11:42:00,
2013-12-05 07:42:00,57.0,57.0,30.11,SE,135,2.0,3.0,100,0.00,,,-99.99,0.000000,,2013-12-05 12:42:00,
2013-12-05 08:42:00,58.0,58.0,30.12,SE,139,0.0,2.0,100,0.00,,,-99.99,24.000000,,2013-12-05 13:42:00,
2013-12-05 09:42:00,59.0,59.0,30.15,SSW,195,2.0,3.0,99,0.00,,,-99.99,187.000000,,2013-12-05 14:42:00,
2013-12-05 10:43:00,61.0,61.0,30.15,SSE,158,1.0,2.0,99,0.00,,,-99.99,306.000000,,2013-12-05 15:43:00,
2013-12-05 13:42:00,73.0,63.0,30.11,SSW,211,10.0,13.0,70,0.00,,,-99.99,400.000000,,2013-12-05 18:42:00,
2013-12-05 14:42:00,74.0,64.0,30.09,SW,219,11.0,15.0,72,0.00,,,-99.99,416.000000,,2013-12-05 19:42:00,
2013-12-05 15:22:00,73.0,65.0,30.07,SSW,206,8.0,12.0,77,0.00,,,-99.99,259.000000,,2013-12-05 20:22:00,
2013-12-05 15:32:00,73.0,65.0,30.07,SSW,206,8.0,12.0,77,0.00,,,-99.99,259.000000,,2013-12-05 20:32:00,
2013-12-05 15:42:00,73.0,65.0,30.07,SSW,206,8.0,12.0,77,0.00,,,-99.99,259.000000,,2013-12-05 20:42:00,
2013-12-05 16:44:00,72.0,66.0,30.07,SSW,201,8.0,12.0,80,0.00,,,-99.99,123.000000,,2013-12-05 21:44:00,
2013-12-05 17:24:00,70.0,65.0,-100.00,South,188,5.0,-999.0,84,0.00,,,-99.99,,,2013-12-05 22:24:00,
2013-12-05 17:34:00,70.0,65.0,-100.00,South,188,5.0,-999.0,84,0.00,,,-99.99,,,2013-12-05 22:34:00,
2013-12-05 17:42:00,70.0,65.0,-100.00,South,188,5.0,-999.0,84,0.00,,,-99.99,,,2013-12-05 22:42:00,
2013-12-05 18:43:00,67.0,64.0,30.09,SW,214,3.0,4.0,90,0.00,,,-99.99,0.000000,,2013-12-05 23:43:00,
2013-12-05 19:42:00,66.0,63.0,30.10,SSW,208,3.0,5.0,92,0.00,,,-99.99,0.000000,,2013-12-06 00:42:00,
2013-12-05 20:42:00,66.0,63.0,30.10,SSW,206,5.0,6.0,91,0.00,,,-99.99,0.000000,,2013-12-06 01:42:00,
2013-12-05 21:42:00,67.0,63.0,30.10,SW,214,4.0,6.0,88,0.00,,,-99.99,0.000000,,2013-12-06 02:42:00,
2013-12-05 22:22:00,66.0,63.0,-100.00,SSW,201,4.0,-999.0,88,0.00,,,-99.99,,,2013-12-06 03:22:00,
2013-12-05 22:34:00,66.0,63.0,-100.00,SSW,201,4.0,-999.0,88,0.00,,,-99.99,,,2013-12-06 03:34:00,
2013-12-05 22:43:00,66.0,63.0,-100.00,SSW,201,4.0,-999.0,88,0.00,,,-99.99,,,2013-12-06 03:43:00,
2013-12-05 23:43:00,64.0,62.0,30.11,SSW,204,1.0,3.0,93,0.00,,,-99.99,0.000000,,2013-12-06 04:43:00,